FW1492 Weather Reports


time (UTC)temp
F
wind
direction
speed
knots
gust
knots
rain 1hr
in
rain 24hr
in
rain mn
in
humidity
%
barometer
mb
20260510153037 63 238 0.9 4.3 0.00 0.28 0.00 78 1014.7
20260510151527 62 245 0.9 3.5 0.00 0.28 0.00 80 1014.8
20260510150022 62 209 0.9 3.5 0.00 0.28 0.00 81 1014.7
20260510144520 60 247 0.9 6.1 0.00 0.28 0.00 84 1014.7
20260510143014 59 265 0.9 5.2 0.00 0.28 0.00 84 1014.8
20260510141513 59 7 0.0 3.5 0.00 0.28 0.00 89 1014.5
20260510140008 58 268 0.0 4.3 0.00 0.28 0.00 93 1014.5
20260510134504 56 262 0.9 4.3 0.00 0.28 0.00 95 1014.4
20260510133001 56 259 0.0 2.6 0.00 0.28 0.00 96 1014.4
20260510131559 55 287 0.0 1.7 0.00 0.28 0.00 97 1014.6
20260510130056 54 210 0.0 0.9 0.00 0.28 0.00 98 1014.6
20260510124552 52 169 0.0 1.7 0.00 0.28 0.00 98 1014.1
20260510123052 52 184 0.0 0.9 0.00 0.28 0.00 98 1014.0
20260510121548 51 234 0.0 0.9 0.00 0.28 0.00 98 1014.0
20260510120044 51 236 0.0 0.0 0.00 0.28 0.00 98 1013.7
20260510114542 50 162 0.0 0.0 0.00 0.28 0.00 98 1013.6
20260510113042 49 162 0.0 1.7 0.00 0.28 0.00 98 1013.3
20260510111538 49 163 0.0 1.7 0.00 0.28 0.00 97 1013.4
20260510110047 49 169 1.7 2.6 0.00 0.28 0.00 98 1013.1
20260510104536 49 158 0.9 1.7 0.00 0.28 0.00 97 1013.0
20260510103037 49 173 0.0 1.7 0.00 0.28 0.00 98 1012.8
20260510101533 49 171 0.9 1.7 0.00 0.28 0.00 98 1012.7
20260510100045 48 162 0.0 1.7 0.00 0.28 0.00 98 1012.8
20260510094538 48 179 0.9 1.7 0.00 0.28 0.00 97 1012.7
20260510093031 48 170 0.0 0.0 0.00 0.28 0.00 97 1012.6
20260510091528 48 152 0.0 0.0 0.00 0.28 0.00 97 1012.6
20260510090028 48 158 0.0 0.0 0.00 0.28 0.00 97 1012.8
20260510084532 47 330 0.0 0.0 0.00 0.28 0.00 97 1013.1
20260510083026 48 330 0.0 0.0 0.00 0.28 0.00 97 1013.0
20260510081535 47 330 0.0 1.7 0.00 0.28 0.00 97 1013.4
20260510080038 47 359 0.0 2.6 0.00 0.28 0.00 97 1013.3
20260510074526 47 347 0.9 4.3 0.00 0.28 0.00 97 1013.2
20260510073035 46 318 2.6 10.4 0.00 0.28 0.00 97 1013.2
20260510071519 46 342 0.0 0.9 0.00 0.28 0.00 96 1012.5
20260510070017 46 341 0.0 0.0 0.00 0.28 0.00 96 1012.6
20260510064519 46 342 0.0 0.0 0.00 0.28 0.00 97 1012.6
20260510063018 46 341 0.0 0.0 0.00 0.28 0.00 96 1012.9
20260510061516 46 341 0.0 0.0 0.00 0.28 0.00 96 1012.8
20260510060031 46 321 0.0 0.9 0.00 0.28 0.00 96 1012.9
20260510054517 47 171 0.0 0.9 0.00 0.30 0.00 97 1012.6
20260510053013 47 170 0.0 2.6 0.00 0.30 0.00 97 1012.3
20260510051512 46 170 0.9 1.7 0.00 0.30 0.00 96 1012.3
20260510050010 46 162 0.0 1.7 0.00 0.30 0.00 96 1012.4
20260510044509 47 160 0.0 0.9 0.00 0.31 0.00 96 1012.6
20260510043007 47 156 0.0 0.0 0.00 0.31 0.00 96 1012.4
20260510041508 47 158 0.9 1.7 0.00 0.31 0.00 96 1012.4
20260510040010 47 160 0.0 1.7 0.00 0.31 0.00 96 1012.4
20260510034503 47 157 0.9 1.7 0.00 0.31 0.31 96 1012.4
20260510033106 47 158 0.0 0.9 0.00 0.31 0.31 95 1012.1
20260510033000 47 158 0.0 0.9 0.00 0.31 0.31 95 1012.2
20260510031605 48 157 0.0 0.0 0.00 0.31 0.31 95 1012.1
20260510024558 48 157 0.0 1.7 0.00 0.31 0.31 95 1012.2
20260510023059 48 157 0.0 1.7 0.00 0.31 0.31 95 1012.2
20260510021646 49 169 0.9 1.7 0.00 0.31 0.31 95 1012.1
20260510020100 49 162 0.0 1.7 0.00 0.31 0.31 95 1012.2
20260510014600 49 167 0.0 2.6 0.00 0.31 0.31 95 1012.1
20260510013102 49 167 0.0 1.7 0.00 0.31 0.31 95 1012.1
20260510011555 49 171 0.0 1.7 0.00 0.31 0.31 95 1012.1
20260510010059 50 166 0.0 1.7 0.00 0.31 0.31 94 1011.7
20260510004554 50 163 0.9 2.6 0.00 0.31 0.31 94 1011.5
20260510003053 50 166 0.0 1.7 0.00 0.31 0.31 94 1011.3
20260510001553 51 165 0.0 1.7 0.00 0.31 0.31 94 1011.5
20260510000053 51 165 0.9 2.6 0.00 0.31 0.31 94 1011.3
20260509234552 51 163 0.0 2.6 0.00 0.31 0.31 93 1011.2
20260509233050 52 155 0.0 1.7 0.00 0.31 0.31 93 1010.9
20260509231552 52 156 0.0 2.6 0.00 0.31 0.31 93 1011.0
20260509230053 52 156 0.0 2.6 0.00 0.31 0.31 92 1010.9
20260509224549 53 159 0.0 1.7 0.00 0.31 0.31 91 1010.9
20260509223051 53 190 0.9 1.7 0.00 0.31 0.31 93 1011.0
20260509221549 53 248 0.0 0.9 0.00 0.31 0.31 93 1011.3
20260509220049 52 267 0.0 0.9 0.00 0.31 0.31 95 1011.2
20260509214547 51 277 0.0 0.9 0.01 0.31 0.31 94 1011.3
20260509213100 51 258 0.0 0.9 0.01 0.31 0.31 94 1011.4
20260509211544 51 274 0.0 1.7 0.02 0.31 0.31 95 1011.5
20260509210049 50 326 0.0 1.7 0.04 0.31 0.31 95 1011.3
20260509204543 50 306 0.0 1.7 0.04 0.30 0.30 94 1011.4
20260509203042 50 281 0.0 1.7 0.07 0.30 0.30 95 1011.5
20260509201541 50 291 0.0 4.3 0.08 0.28 0.28 94 1011.6
20260509200040 50 285 1.7 5.2 0.08 0.27 0.27 94 1012.0
20260509194551 50 293 0.9 5.2 0.09 0.25 0.25 94 1012.3
20260509193036 50 290 0.0 4.3 0.09 0.23 0.23 94 1012.6
20260509191535 51 287 0.0 5.2 0.10 0.21 0.21 93 1012.6
20260509190037 51 302 0.9 2.6 0.12 0.19 0.19 93 1012.9
20260509184535 51 270 0.0 1.7 0.11 0.16 0.16 93 1012.8
20260509183035 51 122 0.0 1.7 0.10 0.14 0.14 92 1012.7
20260509181531 51 255 0.0 3.5 0.08 0.11 0.11 92 1013.1
20260509180035 52 262 0.0 3.5 0.04 0.07 0.07 91 1013.4
20260509174529 52 238 0.9 3.5 0.02 0.05 0.05 90 1013.2
20260509173031 53 251 0.0 3.5 0.01 0.04 0.04 89 1012.9
20260509171534 53 293 0.9 3.5 0.00 0.03 0.03 87 1013.0
20260509170027 53 272 2.6 4.3 0.00 0.03 0.03 87 1012.9
20260509164526 54 245 1.7 4.3 0.00 0.03 0.03 85 1013.0
20260509163027 55 231 0.0 1.7 0.00 0.03 0.03 87 1012.8
20260509161523 54 219 0.0 0.9 0.01 0.03 0.03 88 1012.8
20260509160023 53 215 0.9 2.6 0.01 0.03 0.03 89 1013.3
20260509154522 53 200 0.9 2.6 0.01 0.03 0.03 89 1013.2